Location: Newark
(38.1091°N, 103.8677°W)
Time: 10:07:06
(UTC+00:00)

LightSail 2 - Visible Passes

Search period start: 16 October 2019 00:00
Search period end: 26 October 2019 00:00
Orbit: 707 x 723 km, 24.0° (Epoch: 14 October)

Date Brightness Start Highest point End Pass type
(mag) Time Alt. Az. Time Alt. Az. Time Alt. Az.
16 Oct 7.2 01:26:10 10° SW 01:29:22 17° S 01:32:27 10° SE visible
17 Oct 7.2 02:13:55 10° SW 02:16:48 15° S 02:17:26 15° S visible
18 Oct 7.3 01:16:20 10° SW 01:19:27 16° S 01:22:35 10° SSE visible
19 Oct 7.5 02:04:47 10° SW 02:06:51 12° SSW 02:08:29 11° S visible
20 Oct 7.5 01:06:51 10° SW 01:09:29 14° S 01:12:07 10° SSE visible
22 Oct 7.7 00:58:08 10° SSW 00:59:27 11° SSW 01:00:46 10° S visible
